COSMOS 2251 DEB, 36622

Orbit data source: Space-Track

COSMOS 2251 DEB, 36622 is space debris in LEO originally from a launch on Wed, 16 Jun 1993 UTC launched from the Plesetsk Missile And Space Complex (PKMTR). The debris from Iridium 33, an American commercial communications satellite, has been tracked extensively since its accidental collision with the defunct Russian satellite Cosmos 2251 in 2009. This event, occurring at high speed in low Earth orbit (LEO), generated thousands of pieces of space debris, significantly increasing the risk of further collisions. The Iridium 33 debris cloud has impacted space traffic management and orbital debris mitigation strategies, making it a subject of ongoing study in space situational awareness.

Loading next visibility...
Identifier
36622, 1993-036BEL
Orbit
LEO
Country
Flag of CISCIS
Related business
Manufacturer
Unknown
Mission
Spacecraft
Bus & Motor
Unknown
Mass
Unknown
Launch date (UTC)
1993-06-16 (32 years ago)
Launch vehicle
Unknown
Launch site
Plesetsk Missile And Space Complex (PKMTR)
Object type
Payload
Rocket body
Debris
Shape & HBR
Unknown shape, 0.1 m
Radar Cross Section
Small (<0.1 m²)

Expand to show TLE details & history
Last TLE update: 19 hours ago

TLE from 19 hours ago
0 COSMOS 2251 DEB
1 36622U 93036BEL 25301.07998419  .00007842  00000-0  11110-2 0  9995
2 36622  74.0152 234.9574 0067947  20.4455 339.9414 14.75586133660768
Epoch: 2025-10-28T01:55Z
TLE epoch observation values (Epoch: 2025-10-28T01:55:10.634Z)
Latitude
0.00003°
Longitude
169.49048°
Altitude
601.165 km
Speed
7.583 km/s
True Right ascension
15h 39m 49s
True Declination
0° 00' 00"
Sunlit
Object was in daylight at epoch
Visualization orbit readout
Latitude
Unknown
Longitude
Unknown
Altitude
Unknown
Speed
Unknown
Apparent Right ascension
Unknown
Apparent Declination
Unknown
Sunlit
N/A
Visualization observer readout
Local Sidereal Time
16:30:03
Azimuth
Unknown
Elevation
Unknown
Doppler factor
Unknown
Orbital elements
Apogee altitude
688.565 km
Perigee altitude
593.181 km
Semi-major axis
7,019.01 km
Eccentricity
0.00679
Inclination
74.0152°
RAAN
234.9574°
Arg. of periapsis
20.4455°
True anomaly
339.6722°
Mean anomaly
339.9414°
Eccentric anomaly
339.80702°
Mean motion
3.69088 °/min
Orbital period
97.54 mins
BSTAR
0.001111

Documentation

Showing up to 5 results
|